Year,Month,Day,Hour,Minute,Value (Times are PST for temperature in C)
2018,08,10,00,00,21.10
2018,08,10,00,01,21.10
2018,08,10,00,02,21.00
2018,08,10,00,03,20.90
2018,08,10,00,04,20.90
2018,08,10,00,05,20.80
2018,08,10,00,06,20.80
2018,08,10,00,07,20.80
2018,08,10,00,08,20.70
2018,08,10,00,09,20.70
2018,08,10,00,10,20.60
2018,08,10,00,11,20.60
2018,08,10,00,12,20.50
2018,08,10,00,13,20.50
2018,08,10,00,14,20.40
2018,08,10,00,15,20.40
2018,08,10,00,16,20.30
2018,08,10,00,17,20.30
2018,08,10,00,18,20.20
2018,08,10,00,19,20.20
2018,08,10,00,20,20.20
2018,08,10,00,21,20.10
2018,08,10,00,22,20.00
2018,08,10,00,23,20.10
2018,08,10,00,24,20.00
2018,08,10,00,25,19.90
2018,08,10,00,26,19.90
2018,08,10,00,27,19.80
2018,08,10,00,28,19.80
2018,08,10,00,29,19.70
2018,08,10,00,30,19.70
2018,08,10,00,31,19.70
2018,08,10,00,32,19.60
2018,08,10,00,33,19.60
2018,08,10,00,34,19.60
2018,08,10,00,35,19.50
2018,08,10,00,36,19.40
2018,08,10,00,37,19.40
2018,08,10,00,38,19.40
2018,08,10,00,39,19.30
2018,08,10,00,40,19.30
2018,08,10,00,41,19.20
2018,08,10,00,42,19.20
2018,08,10,00,43,19.20
2018,08,10,00,44,19.10
2018,08,10,00,45,19.10
2018,08,10,00,46,19.10
2018,08,10,00,47,19.10
2018,08,10,00,48,19.10
2018,08,10,00,49,19.10
2018,08,10,00,50,19.00
2018,08,10,00,51,18.80
2018,08,10,00,52,18.80
2018,08,10,00,53,18.80
2018,08,10,00,54,18.80
2018,08,10,00,55,18.70
2018,08,10,00,56,18.70
2018,08,10,00,57,18.70
2018,08,10,00,58,18.70
2018,08,10,00,59,18.60
2018,08,10,01,00,18.60
2018,08,10,01,01,18.60
2018,08,10,01,02,18.50
2018,08,10,01,03,18.40
2018,08,10,01,04,18.40
2018,08,10,01,05,18.40
2018,08,10,01,06,18.40
2018,08,10,01,07,18.30
2018,08,10,01,08,18.30
2018,08,10,01,09,18.30
2018,08,10,01,10,18.20
2018,08,10,01,11,18.20
2018,08,10,01,12,18.20
2018,08,10,01,13,18.10
2018,08,10,01,14,18.10
2018,08,10,01,15,18.10
2018,08,10,01,16,18.10
2018,08,10,01,17,18.00
2018,08,10,01,18,18.00
2018,08,10,01,19,17.90
2018,08,10,01,20,17.90
2018,08,10,01,21,17.90
2018,08,10,01,22,17.90
2018,08,10,01,23,17.80
2018,08,10,01,24,17.80
2018,08,10,01,25,17.70
2018,08,10,01,26,17.70
2018,08,10,01,27,17.70
2018,08,10,01,28,17.60
2018,08,10,01,29,17.60
2018,08,10,01,30,17.50
2018,08,10,01,31,17.50
2018,08,10,01,32,17.50
2018,08,10,01,33,17.40
2018,08,10,01,34,17.40
2018,08,10,01,35,17.30
2018,08,10,01,36,17.30
2018,08,10,01,37,17.30
2018,08,10,01,38,17.30
2018,08,10,01,39,17.20
2018,08,10,01,40,17.20
2018,08,10,01,41,17.20
2018,08,10,01,42,17.20
2018,08,10,01,43,17.20
2018,08,10,01,44,17.10
2018,08,10,01,45,17.10
2018,08,10,01,46,17.10
2018,08,10,01,47,17.10
2018,08,10,01,48,17.10
2018,08,10,01,49,17.00
2018,08,10,01,50,17.00
2018,08,10,01,51,17.00
2018,08,10,01,52,16.90
2018,08,10,01,53,16.90
2018,08,10,01,54,16.90
2018,08,10,01,55,16.90
2018,08,10,01,56,16.90
2018,08,10,01,57,16.90
2018,08,10,01,58,16.90
2018,08,10,01,59,16.80
2018,08,10,02,00,16.80
2018,08,10,02,01,16.80
2018,08,10,02,02,16.90
2018,08,10,02,03,16.90
2018,08,10,02,04,16.80
2018,08,10,02,05,16.80
2018,08,10,02,06,16.80
2018,08,10,02,07,16.80
2018,08,10,02,08,16.80
2018,08,10,02,09,16.80
2018,08,10,02,10,16.80
2018,08,10,02,11,16.80
2018,08,10,02,12,16.80
2018,08,10,02,13,16.70
2018,08,10,02,14,16.70
2018,08,10,02,15,16.70
2018,08,10,02,16,16.70
2018,08,10,02,17,16.60
2018,08,10,02,18,16.60
2018,08,10,02,19,16.60
2018,08,10,02,20,16.60
2018,08,10,02,21,16.50
2018,08,10,02,22,16.50
2018,08,10,02,23,16.50
2018,08,10,02,24,16.40
2018,08,10,02,25,16.40
2018,08,10,02,26,16.40
2018,08,10,02,27,16.40
2018,08,10,02,28,16.30
2018,08,10,02,29,16.30
2018,08,10,02,30,16.30
2018,08,10,02,31,16.30
2018,08,10,02,32,16.30
2018,08,10,02,33,16.20
2018,08,10,02,34,16.20
2018,08,10,02,35,16.20
2018,08,10,02,36,16.20
2018,08,10,02,37,16.20
2018,08,10,02,38,16.10
2018,08,10,02,39,16.10
2018,08,10,02,40,16.10
2018,08,10,02,41,16.10
2018,08,10,02,42,16.10
2018,08,10,02,43,16.10
2018,08,10,02,44,16.00
2018,08,10,02,45,16.00
2018,08,10,02,46,15.90
2018,08,10,02,47,15.90
2018,08,10,02,48,15.90
2018,08,10,02,49,15.90
2018,08,10,02,50,15.90
2018,08,10,02,51,15.80
2018,08,10,02,52,15.80
2018,08,10,02,53,15.80
2018,08,10,02,54,15.80
2018,08,10,02,55,15.80
2018,08,10,02,56,15.80
2018,08,10,02,57,15.80
2018,08,10,02,58,15.70
2018,08,10,02,59,15.70
2018,08,10,03,00,15.70
2018,08,10,03,01,15.70
2018,08,10,03,02,15.70
2018,08,10,03,03,15.70
2018,08,10,03,04,15.60
2018,08,10,03,05,15.60
2018,08,10,03,06,15.60
2018,08,10,03,07,15.50
2018,08,10,03,08,15.50
2018,08,10,03,09,15.50
2018,08,10,03,10,15.40
2018,08,10,03,11,15.40
2018,08,10,03,12,15.40
2018,08,10,03,13,15.40
2018,08,10,03,14,15.30
2018,08,10,03,15,15.30
2018,08,10,03,16,15.30
2018,08,10,03,17,15.30
2018,08,10,03,18,15.30
2018,08,10,03,19,15.20
2018,08,10,03,20,15.20
2018,08,10,03,21,15.20
2018,08,10,03,22,15.20
2018,08,10,03,23,15.20
2018,08,10,03,24,15.20
2018,08,10,03,25,15.20
2018,08,10,03,26,15.20
2018,08,10,03,27,15.20
2018,08,10,03,28,15.20
2018,08,10,03,29,15.20
2018,08,10,03,30,15.20
2018,08,10,03,31,15.20
2018,08,10,03,32,15.20
2018,08,10,03,33,15.10
2018,08,10,03,34,15.10
2018,08,10,03,35,15.10
2018,08,10,03,36,15.00
2018,08,10,03,37,15.00
2018,08,10,03,38,15.00
2018,08,10,03,39,15.00
2018,08,10,03,40,15.00
2018,08,10,03,41,15.00
2018,08,10,03,42,15.00
2018,08,10,03,43,15.00
2018,08,10,03,44,15.00
2018,08,10,03,45,14.90
2018,08,10,03,46,14.90
2018,08,10,03,47,14.80
2018,08,10,03,48,14.80
2018,08,10,03,49,14.80
2018,08,10,03,50,14.80
2018,08,10,03,51,14.70
2018,08,10,03,52,14.70
2018,08,10,03,53,14.70
2018,08,10,03,54,14.70
2018,08,10,03,55,14.70
2018,08,10,03,56,14.60
2018,08,10,03,57,14.60
2018,08,10,03,58,14.60
2018,08,10,03,59,14.60
2018,08,10,04,00,14.60
2018,08,10,04,01,14.60
2018,08,10,04,02,14.60
2018,08,10,04,03,14.60
2018,08,10,04,04,14.60
2018,08,10,04,05,14.60
2018,08,10,04,06,14.60
2018,08,10,04,07,14.60
2018,08,10,04,08,14.60
2018,08,10,04,09,14.60
2018,08,10,04,10,14.60
2018,08,10,04,11,14.60
2018,08,10,04,12,14.50
2018,08,10,04,13,14.50
2018,08,10,04,14,14.50
2018,08,10,04,15,14.50
2018,08,10,04,16,14.50
2018,08,10,04,17,14.40
2018,08,10,04,18,14.40
2018,08,10,04,19,14.40
2018,08,10,04,20,14.40
2018,08,10,04,21,14.40
2018,08,10,04,22,14.40
2018,08,10,04,23,14.30
2018,08,10,04,24,14.30
2018,08,10,04,25,14.30
2018,08,10,04,26,14.30
2018,08,10,04,27,14.20
2018,08,10,04,28,14.20
2018,08,10,04,29,14.20
2018,08,10,04,30,14.20
2018,08,10,04,31,14.20
2018,08,10,04,32,14.10
2018,08,10,04,33,14.10
2018,08,10,04,34,14.10
2018,08,10,04,35,14.10
2018,08,10,04,36,14.10
2018,08,10,04,37,14.10
2018,08,10,04,38,14.10
2018,08,10,04,39,14.00
2018,08,10,04,40,14.00
2018,08,10,04,41,14.00
2018,08,10,04,42,14.00
2018,08,10,04,43,14.00
2018,08,10,04,44,14.00
2018,08,10,04,45,14.00
2018,08,10,04,46,13.90
2018,08,10,04,47,13.90
2018,08,10,04,48,13.90
2018,08,10,04,49,13.90
2018,08,10,04,50,13.90
2018,08,10,04,51,13.90
2018,08,10,04,52,13.80
2018,08,10,04,53,13.80
2018,08,10,04,54,13.80
2018,08,10,04,55,13.80
2018,08,10,04,56,13.80
2018,08,10,04,57,13.70
2018,08,10,04,58,13.70
2018,08,10,04,59,13.70
2018,08,10,05,00,13.70
2018,08,10,05,01,13.70
2018,08,10,05,02,13.60
2018,08,10,05,03,13.60
2018,08,10,05,04,13.60
2018,08,10,05,05,13.60
2018,08,10,05,06,13.60
2018,08,10,05,07,13.60
2018,08,10,05,08,13.60
2018,08,10,05,09,13.60
2018,08,10,05,10,13.60
2018,08,10,05,11,13.50
2018,08,10,05,12,13.60
2018,08,10,05,13,13.50
2018,08,10,05,14,13.60
2018,08,10,05,15,13.60
2018,08,10,05,16,13.60
2018,08,10,05,17,13.50
2018,08,10,05,18,13.50
2018,08,10,05,19,13.50
2018,08,10,05,20,13.50
2018,08,10,05,21,13.50
2018,08,10,05,22,13.50
2018,08,10,05,23,13.50
2018,08,10,05,24,13.50
2018,08,10,05,25,13.50
2018,08,10,05,26,13.50
2018,08,10,05,27,13.40
2018,08,10,05,28,13.40
2018,08,10,05,29,13.40
2018,08,10,05,30,13.40
2018,08,10,05,31,13.40
2018,08,10,05,32,13.40
2018,08,10,05,33,13.40
2018,08,10,05,34,13.40
2018,08,10,05,35,13.40
2018,08,10,05,36,13.30
2018,08,10,05,37,13.30
2018,08,10,05,38,13.30
2018,08,10,05,39,13.40
2018,08,10,05,40,13.30
2018,08,10,05,41,13.30
2018,08,10,05,42,13.30
2018,08,10,05,43,13.30
2018,08,10,05,44,13.30
2018,08,10,05,45,13.30
2018,08,10,05,46,13.30
2018,08,10,05,47,13.30
2018,08,10,05,48,13.30
2018,08,10,05,49,13.30
2018,08,10,05,50,13.30
2018,08,10,05,51,13.30
2018,08,10,05,52,13.30
2018,08,10,05,53,13.20
2018,08,10,05,54,13.20
2018,08,10,05,55,13.20
2018,08,10,05,56,13.20
2018,08,10,05,57,13.20
2018,08,10,05,58,13.20
2018,08,10,05,59,13.20
2018,08,10,06,00,13.20
2018,08,10,06,01,13.20
2018,08,10,06,02,13.20
2018,08,10,06,03,13.20
2018,08,10,06,04,13.20
2018,08,10,06,05,13.20
2018,08,10,06,06,13.20
2018,08,10,06,07,13.20
2018,08,10,06,08,13.20
2018,08,10,06,09,13.20
2018,08,10,06,10,13.20
2018,08,10,06,11,13.20
2018,08,10,06,12,13.20
2018,08,10,06,13,13.20
2018,08,10,06,14,13.20
2018,08,10,06,15,13.20
2018,08,10,06,16,13.10
2018,08,10,06,17,13.10
2018,08,10,06,18,13.10
2018,08,10,06,19,13.10
2018,08,10,06,20,13.10
2018,08,10,06,21,13.10
2018,08,10,06,22,13.10
2018,08,10,06,23,13.10
2018,08,10,06,24,13.10
2018,08,10,06,25,13.10
2018,08,10,06,26,13.00
2018,08,10,06,27,13.00
2018,08,10,06,28,13.00
2018,08,10,06,29,13.00
2018,08,10,06,30,13.00
2018,08,10,06,31,13.00
2018,08,10,06,32,12.90
2018,08,10,06,33,12.90
2018,08,10,06,34,12.90
2018,08,10,06,35,12.90
2018,08,10,06,36,12.90
2018,08,10,06,37,12.90
2018,08,10,06,38,12.90
2018,08,10,06,39,12.90
2018,08,10,06,40,12.90
2018,08,10,06,41,12.90
2018,08,10,06,42,12.90
2018,08,10,06,43,12.90
2018,08,10,06,44,12.80
2018,08,10,06,45,12.80
2018,08,10,06,46,12.80
2018,08,10,06,47,12.80
2018,08,10,06,48,12.80
2018,08,10,06,49,12.80
2018,08,10,06,50,12.80
2018,08,10,06,51,12.80
2018,08,10,06,52,12.80
2018,08,10,06,53,12.80
2018,08,10,06,54,12.80
2018,08,10,06,55,12.80
2018,08,10,06,56,12.80
2018,08,10,06,57,12.80
2018,08,10,06,58,12.80
2018,08,10,06,59,12.80
2018,08,10,07,00,12.80
2018,08,10,07,01,12.80
2018,08,10,07,02,12.80
2018,08,10,07,03,12.80
2018,08,10,07,04,12.80
2018,08,10,07,05,12.80
2018,08,10,07,06,12.80
2018,08,10,07,07,12.80
2018,08,10,07,08,12.80
2018,08,10,07,09,12.80
2018,08,10,07,10,12.80
2018,08,10,07,11,12.80
2018,08,10,07,12,12.90
2018,08,10,07,13,12.90
2018,08,10,07,14,12.90
2018,08,10,07,15,12.90
2018,08,10,07,16,12.90
2018,08,10,07,17,12.90
2018,08,10,07,18,12.90
2018,08,10,07,19,12.90
2018,08,10,07,20,12.90
2018,08,10,07,21,13.00
2018,08,10,07,22,13.00
2018,08,10,07,23,13.00
2018,08,10,07,24,13.00
2018,08,10,07,25,13.00
2018,08,10,07,26,13.10
2018,08,10,07,27,13.10
2018,08,10,07,28,13.10
2018,08,10,07,29,13.10
2018,08,10,07,30,13.10
2018,08,10,07,31,13.20
2018,08,10,07,32,13.30
2018,08,10,07,33,13.30
2018,08,10,07,34,13.30
2018,08,10,07,35,13.40
2018,08,10,07,36,13.40
2018,08,10,07,37,13.40
2018,08,10,07,38,13.40
2018,08,10,07,39,13.50
2018,08,10,07,40,13.60
2018,08,10,07,41,13.60
2018,08,10,07,42,13.70
2018,08,10,07,43,13.70
2018,08,10,07,44,13.80
2018,08,10,07,45,13.80
2018,08,10,07,46,13.80
2018,08,10,07,47,13.80
2018,08,10,07,48,13.90
2018,08,10,07,49,13.90
2018,08,10,07,50,13.90
2018,08,10,07,51,14.00
2018,08,10,07,52,14.00
2018,08,10,07,53,14.00
2018,08,10,07,54,14.00
2018,08,10,07,55,14.00
2018,08,10,07,56,14.00
2018,08,10,07,57,14.30
2018,08,10,07,58,14.50
2018,08,10,07,59,14.60
2018,08,10,08,00,14.80
2018,08,10,08,01,15.00
2018,08,10,08,02,15.00
2018,08,10,08,03,15.00
2018,08,10,08,04,15.20
2018,08,10,08,05,15.20
2018,08,10,08,06,15.40
2018,08,10,08,07,15.50
2018,08,10,08,08,15.60
2018,08,10,08,09,15.70
2018,08,10,08,10,15.70
2018,08,10,08,11,15.80
2018,08,10,08,12,15.80
2018,08,10,08,13,15.80
2018,08,10,08,14,15.90
2018,08,10,08,15,16.00
2018,08,10,08,16,16.00
2018,08,10,08,17,16.10
2018,08,10,08,18,16.10
2018,08,10,08,19,16.20
2018,08,10,08,20,16.20
2018,08,10,08,21,16.30
2018,08,10,08,22,16.40
2018,08,10,08,23,16.50
2018,08,10,08,24,16.60
2018,08,10,08,25,16.70
2018,08,10,08,26,16.80
2018,08,10,08,27,16.90
2018,08,10,08,28,17.00
2018,08,10,08,29,17.10
2018,08,10,08,30,17.20
2018,08,10,08,31,17.30
2018,08,10,08,32,17.40
2018,08,10,08,33,17.50
2018,08,10,08,34,17.60
2018,08,10,08,35,17.70
2018,08,10,08,36,17.80
2018,08,10,08,37,17.80
2018,08,10,08,38,17.90
2018,08,10,08,39,18.00
2018,08,10,08,40,18.00
2018,08,10,08,41,18.10
2018,08,10,08,42,18.20
2018,08,10,08,43,18.20
2018,08,10,08,44,18.30
2018,08,10,08,45,18.30
2018,08,10,08,46,18.40
2018,08,10,08,47,18.50
2018,08,10,08,48,18.50
2018,08,10,08,49,18.60
2018,08,10,08,50,18.70
2018,08,10,08,51,18.80
2018,08,10,08,52,18.90
2018,08,10,08,53,18.90
2018,08,10,08,54,19.00
2018,08,10,08,55,19.10
2018,08,10,08,56,19.20
2018,08,10,08,57,19.20
2018,08,10,08,58,19.30
2018,08,10,08,59,19.40
2018,08,10,09,00,19.40
2018,08,10,09,01,19.50
2018,08,10,09,02,19.50
2018,08,10,09,03,19.60
2018,08,10,09,04,19.60
2018,08,10,09,05,19.70
2018,08,10,09,06,19.70
2018,08,10,09,07,19.80
2018,08,10,09,08,19.80
2018,08,10,09,09,19.90
2018,08,10,09,10,20.00
2018,08,10,09,11,20.00
2018,08,10,09,12,20.10
2018,08,10,09,13,20.20
2018,08,10,09,14,20.20
2018,08,10,09,15,20.30
2018,08,10,09,16,20.40
2018,08,10,09,17,20.50
2018,08,10,09,18,20.50
2018,08,10,09,19,20.60
2018,08,10,09,20,20.70
2018,08,10,09,21,20.80
2018,08,10,09,22,20.90
2018,08,10,09,23,21.00
2018,08,10,09,24,21.10
2018,08,10,09,25,21.20
2018,08,10,09,26,21.30
2018,08,10,09,27,21.40
2018,08,10,09,28,21.50
2018,08,10,09,29,21.60
2018,08,10,09,30,21.70
2018,08,10,09,31,21.80
2018,08,10,09,32,21.90
2018,08,10,09,33,22.00
2018,08,10,09,34,22.10
2018,08,10,09,35,22.20
2018,08,10,09,36,22.30
2018,08,10,09,37,22.30
2018,08,10,09,38,22.40
2018,08,10,09,39,22.50
2018,08,10,09,40,22.60
2018,08,10,09,41,22.70
2018,08,10,09,42,22.80
2018,08,10,09,43,22.90
2018,08,10,09,44,22.90
2018,08,10,09,45,23.00
2018,08,10,09,46,23.10
2018,08,10,09,47,23.20
2018,08,10,09,48,23.30
2018,08,10,09,49,23.30
2018,08,10,09,50,23.40
2018,08,10,09,51,23.50
2018,08,10,09,52,23.60
2018,08,10,09,53,23.70
2018,08,10,09,54,23.80
2018,08,10,09,55,23.80
2018,08,10,09,56,23.80
2018,08,10,09,57,23.90
2018,08,10,09,58,23.90
2018,08,10,09,59,24.00
2018,08,10,10,00,24.00
2018,08,10,10,01,24.10
2018,08,10,10,02,24.20
2018,08,10,10,03,24.20
2018,08,10,10,04,24.20
2018,08,10,10,05,24.30
2018,08,10,10,06,24.30
2018,08,10,10,07,24.40
2018,08,10,10,08,24.40
2018,08,10,10,09,24.50
2018,08,10,10,10,24.60
2018,08,10,10,11,24.60
2018,08,10,10,12,24.70
2018,08,10,10,13,24.70
2018,08,10,10,14,24.80
2018,08,10,10,15,24.80
2018,08,10,10,16,24.80
2018,08,10,10,17,24.90
2018,08,10,10,18,24.90
2018,08,10,10,19,25.00
2018,08,10,10,20,25.10
2018,08,10,10,21,25.10
2018,08,10,10,22,25.20
2018,08,10,10,23,25.20
2018,08,10,10,24,25.30
2018,08,10,10,25,25.30
2018,08,10,10,26,25.40
2018,08,10,10,27,25.50
2018,08,10,10,28,25.60
2018,08,10,10,29,25.80
2018,08,10,10,30,25.90
2018,08,10,10,31,25.90
2018,08,10,10,32,25.90
2018,08,10,10,33,25.90
2018,08,10,10,34,25.90
2018,08,10,10,35,26.00
2018,08,10,10,36,26.00
2018,08,10,10,37,26.10
2018,08,10,10,38,26.20
2018,08,10,10,39,26.20
2018,08,10,10,40,26.20
2018,08,10,10,41,26.20
2018,08,10,10,42,26.20
2018,08,10,10,43,26.20
2018,08,10,10,44,26.20
2018,08,10,10,45,26.20
2018,08,10,10,46,26.20
2018,08,10,10,47,26.30
2018,08,10,10,48,26.40
2018,08,10,10,49,26.50
2018,08,10,10,50,26.60
2018,08,10,10,51,26.70
2018,08,10,10,52,26.70
2018,08,10,10,53,26.80
2018,08,10,10,54,26.80
2018,08,10,10,55,26.90
2018,08,10,10,56,27.00
2018,08,10,10,57,27.00
2018,08,10,10,58,27.10
2018,08,10,10,59,27.20
2018,08,10,11,00,27.30
2018,08,10,11,01,27.30
2018,08,10,11,02,27.30
2018,08,10,11,03,27.30
2018,08,10,11,04,27.30
2018,08,10,11,05,27.30
2018,08,10,11,06,27.20
2018,08,10,11,07,27.20
2018,08,10,11,08,27.20
2018,08,10,11,09,27.20
2018,08,10,11,10,27.20
2018,08,10,11,11,27.30
2018,08,10,11,12,27.30
2018,08,10,11,13,27.40
2018,08,10,11,14,27.40
2018,08,10,11,15,27.50
2018,08,10,11,16,27.60
2018,08,10,11,17,27.70
2018,08,10,11,18,27.70
2018,08,10,11,19,27.70
2018,08,10,11,20,27.70
2018,08,10,11,21,27.70
2018,08,10,11,22,27.80
2018,08,10,11,23,27.80
2018,08,10,11,24,27.90
2018,08,10,11,25,28.00
2018,08,10,11,26,28.10
2018,08,10,11,27,28.20
2018,08,10,11,28,28.30
2018,08,10,11,29,28.30
2018,08,10,11,30,28.30
2018,08,10,11,31,28.30
2018,08,10,11,32,28.30
2018,08,10,11,33,28.40
2018,08,10,11,34,28.50
2018,08,10,11,35,28.60
2018,08,10,11,36,28.70
2018,08,10,11,37,28.80
2018,08,10,11,38,28.80
2018,08,10,11,39,28.80
2018,08,10,11,40,28.80
2018,08,10,11,41,28.80
2018,08,10,11,42,28.80
2018,08,10,11,43,28.80
2018,08,10,11,44,28.80
2018,08,10,11,45,28.90
2018,08,10,11,46,29.10
2018,08,10,11,47,29.10
2018,08,10,11,48,29.10
2018,08,10,11,49,29.10
2018,08,10,11,50,29.10
2018,08,10,11,51,29.10
2018,08,10,11,52,29.10
2018,08,10,11,53,29.20
2018,08,10,11,54,29.20
2018,08,10,11,55,29.30
2018,08,10,11,56,29.40
2018,08,10,11,57,29.40
2018,08,10,11,58,29.50
2018,08,10,11,59,29.50
2018,08,10,12,00,29.60
2018,08,10,12,01,29.70
2018,08,10,12,02,29.70
2018,08,10,12,03,29.70
2018,08,10,12,04,29.70
2018,08,10,12,05,29.70
2018,08,10,12,06,29.60
2018,08,10,12,07,29.60
2018,08,10,12,08,29.60
2018,08,10,12,09,29.60
2018,08,10,12,10,29.60
2018,08,10,12,11,29.60
2018,08,10,12,12,29.70
2018,08,10,12,13,29.70
2018,08,10,12,14,29.70
2018,08,10,12,15,29.80
2018,08,10,12,16,29.80
2018,08,10,12,17,29.80
2018,08,10,12,18,29.90
2018,08,10,12,19,30.00
2018,08,10,12,20,30.20
2018,08,10,12,21,30.30
2018,08,10,12,22,30.40
2018,08,10,12,23,30.50
2018,08,10,12,24,30.60
2018,08,10,12,25,30.70
2018,08,10,12,26,30.80
2018,08,10,12,27,30.90
2018,08,10,12,28,30.90
2018,08,10,12,29,31.00
2018,08,10,12,30,31.00
2018,08,10,12,31,31.10
2018,08,10,12,32,31.10
2018,08,10,12,33,31.10
2018,08,10,12,34,31.10
2018,08,10,12,35,31.10
2018,08,10,12,36,31.10
2018,08,10,12,37,31.20
2018,08,10,12,38,31.20
2018,08,10,12,39,31.20
2018,08,10,12,40,31.20
2018,08,10,12,41,31.20
2018,08,10,12,42,31.20
2018,08,10,12,43,31.20
2018,08,10,12,44,31.20
2018,08,10,12,45,31.20
2018,08,10,12,46,31.30
2018,08,10,12,47,31.60
2018,08,10,12,48,31.60
2018,08,10,12,49,31.70
2018,08,10,12,50,31.80
2018,08,10,12,51,31.90
2018,08,10,12,52,31.90
2018,08,10,12,53,32.10
2018,08,10,12,54,32.20
2018,08,10,12,55,32.30
2018,08,10,12,56,32.30
2018,08,10,12,57,32.30
2018,08,10,12,58,32.30
2018,08,10,12,59,32.30
2018,08,10,13,00,32.30
2018,08,10,13,01,32.50
2018,08,10,13,02,32.80
2018,08,10,13,03,32.80
2018,08,10,13,04,32.80
2018,08,10,13,05,32.80
2018,08,10,13,06,32.80
2018,08,10,13,07,32.80
2018,08,10,13,08,32.90
2018,08,10,13,09,32.90
2018,08,10,13,10,32.80
2018,08,10,13,11,32.70
2018,08,10,13,12,32.50
2018,08,10,13,13,32.30
2018,08,10,13,14,32.20
2018,08,10,13,15,32.10
2018,08,10,13,16,32.00
2018,08,10,13,17,32.00
2018,08,10,13,18,32.00
2018,08,10,13,19,32.10
2018,08,10,13,20,32.00
2018,08,10,13,21,31.90
2018,08,10,13,22,31.80
2018,08,10,13,23,31.80
2018,08,10,13,24,31.80
2018,08,10,13,25,31.70
2018,08,10,13,26,31.60
2018,08,10,13,27,31.50
2018,08,10,13,28,31.40
2018,08,10,13,29,31.40
2018,08,10,13,30,31.40
2018,08,10,13,31,31.40
2018,08,10,13,32,31.40
2018,08,10,13,33,31.40
2018,08,10,13,34,31.30
2018,08,10,13,35,31.30
2018,08,10,13,36,31.20
2018,08,10,13,37,31.20
2018,08,10,13,38,31.10
2018,08,10,13,39,30.90
2018,08,10,13,40,30.90
2018,08,10,13,41,30.80
2018,08,10,13,42,30.90
2018,08,10,13,43,30.90
2018,08,10,13,44,30.80
2018,08,10,13,45,30.80
2018,08,10,13,46,30.80
2018,08,10,13,47,30.70
2018,08,10,13,48,30.70
2018,08,10,13,49,30.60
2018,08,10,13,50,30.60
2018,08,10,13,51,30.60
2018,08,10,13,52,30.60
2018,08,10,13,53,30.60
2018,08,10,13,54,30.60
2018,08,10,13,55,30.60
2018,08,10,13,56,30.70
2018,08,10,13,57,30.70
2018,08,10,13,58,30.70
2018,08,10,13,59,30.70
2018,08,10,14,00,30.70
2018,08,10,14,01,30.60
2018,08,10,14,02,30.60
2018,08,10,14,03,30.60
2018,08,10,14,04,30.50
2018,08,10,14,05,30.50
2018,08,10,14,06,30.50
2018,08,10,14,07,30.40
2018,08,10,14,08,30.50
2018,08,10,14,09,30.60
2018,08,10,14,10,30.60
2018,08,10,14,11,30.70
2018,08,10,14,12,30.70
2018,08,10,14,13,30.70
2018,08,10,14,14,30.80
2018,08,10,14,15,30.70
2018,08,10,14,16,30.70
2018,08,10,14,17,30.60
2018,08,10,14,18,30.50
2018,08,10,14,19,30.50
2018,08,10,14,20,30.50
2018,08,10,14,21,30.50
2018,08,10,14,22,30.60
2018,08,10,14,23,30.60
2018,08,10,14,24,30.60
2018,08,10,14,25,30.70
2018,08,10,14,26,30.60
2018,08,10,14,27,30.60
2018,08,10,14,28,30.60
2018,08,10,14,29,30.60
2018,08,10,14,30,30.60
2018,08,10,14,31,30.60
2018,08,10,14,32,30.70
2018,08,10,14,33,30.60
2018,08,10,14,34,30.60
2018,08,10,14,35,30.40
2018,08,10,14,36,30.30
2018,08,10,14,37,30.30
2018,08,10,14,38,30.30
2018,08,10,14,39,30.40
2018,08,10,14,40,30.50
2018,08,10,14,41,30.60
2018,08,10,14,42,30.60
2018,08,10,14,43,30.50
2018,08,10,14,44,30.50
2018,08,10,14,45,30.50
2018,08,10,14,46,30.50
2018,08,10,14,47,30.50
2018,08,10,14,48,30.50
2018,08,10,14,49,30.50
2018,08,10,14,50,30.60
2018,08,10,14,51,30.60
2018,08,10,14,52,30.60
2018,08,10,14,53,30.60
2018,08,10,14,54,30.50
2018,08,10,14,55,30.50
2018,08,10,14,56,30.40
2018,08,10,14,57,30.30
2018,08,10,14,58,30.20
2018,08,10,14,59,30.10
2018,08,10,15,00,30.10
2018,08,10,15,01,30.00
2018,08,10,15,02,30.00
2018,08,10,15,03,30.00
2018,08,10,15,04,30.10
2018,08,10,15,05,30.20
2018,08,10,15,06,30.10
2018,08,10,15,07,30.00
2018,08,10,15,08,30.00
2018,08,10,15,09,29.90
2018,08,10,15,10,29.90
2018,08,10,15,11,29.90
2018,08,10,15,12,29.90
2018,08,10,15,13,29.90
2018,08,10,15,14,30.00
2018,08,10,15,15,30.10
2018,08,10,15,16,30.10
2018,08,10,15,17,30.00
2018,08,10,15,18,29.90
2018,08,10,15,19,29.80
2018,08,10,15,20,29.70
2018,08,10,15,21,29.70
2018,08,10,15,22,29.70
2018,08,10,15,23,29.60
2018,08,10,15,24,29.50
2018,08,10,15,25,29.50
2018,08,10,15,26,29.40
2018,08,10,15,27,29.50
2018,08,10,15,28,29.50
2018,08,10,15,29,29.50
2018,08,10,15,30,29.40
2018,08,10,15,31,29.30
2018,08,10,15,32,29.10
2018,08,10,15,33,29.10
2018,08,10,15,34,29.00
2018,08,10,15,35,28.90
2018,08,10,15,36,28.80
2018,08,10,15,37,28.80
2018,08,10,15,38,28.90
2018,08,10,15,39,29.00
2018,08,10,15,40,29.00
2018,08,10,15,41,28.90
2018,08,10,15,42,29.00
2018,08,10,15,43,29.00
2018,08,10,15,44,29.00
2018,08,10,15,45,29.10
2018,08,10,15,46,29.00
2018,08,10,15,47,29.10
2018,08,10,15,48,29.10
2018,08,10,15,49,29.10
2018,08,10,15,50,29.20
2018,08,10,15,51,29.20
2018,08,10,15,52,29.10
2018,08,10,15,53,29.00
2018,08,10,15,54,29.00
2018,08,10,15,55,29.00
2018,08,10,15,56,29.10
2018,08,10,15,57,29.20
2018,08,10,15,58,29.40
2018,08,10,15,59,29.50
2018,08,10,16,00,29.60
2018,08,10,16,01,29.60
2018,08,10,16,02,29.60
2018,08,10,16,03,29.60
2018,08,10,16,04,29.60
2018,08,10,16,05,29.50
2018,08,10,16,06,29.40
2018,08,10,16,07,29.40
2018,08,10,16,08,29.30
2018,08,10,16,09,29.30
2018,08,10,16,10,29.20
2018,08,10,16,11,29.10
2018,08,10,16,12,29.10
2018,08,10,16,13,29.10
2018,08,10,16,14,29.10
2018,08,10,16,15,29.10
2018,08,10,16,16,29.10
2018,08,10,16,17,29.10
2018,08,10,16,18,29.10
2018,08,10,16,19,29.10
2018,08,10,16,20,29.10
2018,08,10,16,21,29.10
2018,08,10,16,22,29.10
2018,08,10,16,23,29.10
2018,08,10,16,24,29.10
2018,08,10,16,25,29.10
2018,08,10,16,26,29.00
2018,08,10,16,27,29.10
2018,08,10,16,28,29.10
2018,08,10,16,29,29.10
2018,08,10,16,30,29.10
2018,08,10,16,31,29.00
2018,08,10,16,32,28.90
2018,08,10,16,33,28.90
2018,08,10,16,34,28.80
2018,08,10,16,35,28.70
2018,08,10,16,36,28.70
2018,08,10,16,37,28.70
2018,08,10,16,38,28.70
2018,08,10,16,39,28.70
2018,08,10,16,40,28.70
2018,08,10,16,41,28.60
2018,08,10,16,42,28.60
2018,08,10,16,43,28.50
2018,08,10,16,44,28.40
2018,08,10,16,45,28.40
2018,08,10,16,46,28.30
2018,08,10,16,47,28.30
2018,08,10,16,48,28.30
2018,08,10,16,49,28.20
2018,08,10,16,50,28.00
2018,08,10,16,51,27.80
2018,08,10,16,52,27.70
2018,08,10,16,53,27.60
2018,08,10,16,54,27.50
2018,08,10,16,55,27.40
2018,08,10,16,56,27.20
2018,08,10,16,57,27.10
2018,08,10,16,58,27.10
2018,08,10,16,59,27.00
2018,08,10,17,00,26.90
2018,08,10,17,01,26.90
2018,08,10,17,02,26.90
2018,08,10,17,03,26.90
2018,08,10,17,04,26.80
2018,08,10,17,05,26.80
2018,08,10,17,06,26.80
2018,08,10,17,07,26.90
2018,08,10,17,08,26.90
2018,08,10,17,09,26.90
2018,08,10,17,10,27.00
2018,08,10,17,11,27.10
2018,08,10,17,12,27.10
2018,08,10,17,13,27.20
2018,08,10,17,14,27.20
2018,08,10,17,15,27.20
2018,08,10,17,16,27.20
2018,08,10,17,17,27.20
2018,08,10,17,18,27.20
2018,08,10,17,19,27.20